Weather History for Mount Sterling, KY

Change the Weather History Date:

Friday, November 2, 2012

  Actual Average Record
Temperature  
Mean Temperature 42 °F -  
Max Temperature 53 °F 66 °F 55 °F (2013)
Min Temperature 32 °F 43 °F 42 °F (2013)
Degree Days  
Heating Degree Days 22    
Moisture  
Dew Point 31 °F    
Average Humidity 59    
Maximum Humidity 100    
Minimum Humidity 44    
Precipitation  
Precipitation 0.00 in - - ()
Sea Level Pressure  
Sea Level Pressure 29.96 in    
Wind  
Wind Speed 6 mph ()    
Max Wind Speed 10 mph    
Max Gust Speed 16 mph    
Visibility 10.0 miles    
Events      
Averages and records for this station are not official NWS values.
T = Trace of Precipitation, MM = Missing Value Source: Averaged Metar Reports

Daily Weather History Graph

Daily Weather History Graph

Search for Another Location

Airport:

Trip Planner

Search our weather history database for the weather conditions in past years. The results will help you decide how hot, cold, wet, or windy it might be!

Date:

Astronomy

Nov. 02, 2012 Rise Set
Actual Time 8:03 AM EDT 6:35 PM EDT
Civil Twilight 7:35 AM EDT 7:02 PM EDT
Nautical Twilight 7:04 AM EDT 7:33 PM EDT
Astronomical Twilight 6:33 AM EDT 8:04 PM EDT
Moon 9:23 PM EDT (11/2) 11:21 AM EDT (11/2)
Length of Visible Light 11h 26m
Length of Day
10h 31m
Waning Gibbous, 87% of the Moon is Illuminated
Nov 2
Waning Gibbous
Nov 6
Last Quarter
Nov 13
New
Nov 20
First Quarter
Nov 28
Full

Hourly Weather History & Observations

Time (EDT) Temp. Windchill Dew Point Humidity Pressure Visibility Wind Dir Wind Speed Gust Speed Precip Events Conditions
12:15 AM 46.4 °F 42.4 °F 28.4 °F 50% 29.90 in 10.0 mi West 8.1 mph - N/A   Overcast
12:35 AM 46.4 °F 42.9 °F 28.4 °F 50% 29.89 in 10.0 mi West 6.9 mph - N/A   Overcast
12:55 AM 44.6 °F 42.2 °F 28.4 °F 53% 29.89 in 10.0 mi West 4.6 mph - N/A   Overcast
1:15 AM 46.4 °F 43.5 °F 28.4 °F 50% 29.89 in 10.0 mi West 5.8 mph - N/A   Overcast
1:35 AM 46.4 °F 42.9 °F 28.4 °F 50% 29.89 in 10.0 mi West 6.9 mph - N/A   Overcast
1:55 AM 44.6 °F 41.4 °F 30.2 °F 57% 29.88 in 10.0 mi WSW 5.8 mph - N/A   Overcast
2:15 AM 44.6 °F 40.7 °F 30.2 °F 57% 29.88 in 10.0 mi West 6.9 mph - N/A   Overcast
2:35 AM 46.4 °F 42.9 °F 30.2 °F 53% 29.87 in 10.0 mi West 6.9 mph - N/A   Overcast
2:55 AM 46.4 °F 44.3 °F 30.2 °F 53% 29.87 in 10.0 mi WSW 4.6 mph - N/A   Overcast
3:15 AM 46.4 °F 43.5 °F 30.2 °F 53% 29.87 in 10.0 mi West 5.8 mph - N/A   Overcast
3:35 AM 46.4 °F 42.9 °F 30.2 °F 53% 29.87 in 10.0 mi WSW 6.9 mph - N/A   Overcast
3:55 AM 46.4 °F 42.9 °F 30.2 °F 53% 29.86 in 10.0 mi WSW 6.9 mph - N/A   Overcast
4:15 AM 44.6 °F 41.4 °F 30.2 °F 57% 29.85 in 10.0 mi West 5.8 mph - N/A   Overcast
4:35 AM 44.6 °F 41.4 °F 32.0 °F 61% 29.84 in 10.0 mi WSW 5.8 mph - N/A   Overcast
4:55 AM 44.6 °F 41.4 °F 32.0 °F 61% 29.84 in 10.0 mi West 5.8 mph - N/A   Overcast
5:15 AM 44.6 °F 40.7 °F 32.0 °F 61% 29.84 in 10.0 mi West 6.9 mph - N/A   Overcast
5:35 AM 46.4 °F 42.4 °F 32.0 °F 57% 29.84 in 10.0 mi West 8.1 mph - N/A   Overcast
5:55 AM 46.4 °F 41.9 °F 32.0 °F 57% 29.84 in 10.0 mi West 9.2 mph - N/A   Overcast
6:15 AM 46.4 °F 42.9 °F 32.0 °F 57% 29.85 in 10.0 mi West 6.9 mph - N/A   Overcast
6:35 AM 44.6 °F 42.2 °F 32.0 °F 61% 29.86 in 10.0 mi West 4.6 mph - N/A   Overcast
6:55 AM 44.6 °F 40.7 °F 33.8 °F 66% 29.87 in 10.0 mi West 6.9 mph - N/A   Mostly Cloudy
7:15 AM 44.6 °F 40.7 °F 32.0 °F 61% 29.88 in 10.0 mi WNW 6.9 mph - N/A   Overcast
7:35 AM 44.6 °F 40.7 °F 33.8 °F 66% 29.88 in 10.0 mi NW 6.9 mph - N/A   Overcast
7:55 AM 44.6 °F 40.2 °F 33.8 °F 66% 29.89 in 10.0 mi NW 8.1 mph - N/A   Mostly Cloudy
8:15 AM 42.8 °F 37.5 °F 32.0 °F 66% 29.91 in 10.0 mi NNW 9.2 mph - N/A   Scattered Clouds
8:35 AM 42.8 °F 38.0 °F 32.0 °F 66% 29.92 in 10.0 mi North 8.1 mph - N/A   Clear
8:55 AM 42.8 °F 39.3 °F 32.0 °F 66% 29.93 in 10.0 mi NNE 5.8 mph - N/A   Clear
9:35 AM 42.8 °F 38.0 °F 30.2 °F 61% 29.96 in 10.0 mi NE 8.1 mph - N/A   Clear
9:55 AM 44.6 °F 40.7 °F 28.4 °F 53% 29.97 in 10.0 mi NE 6.9 mph - N/A   Clear
10:15 AM 44.6 °F 40.2 °F 30.2 °F 57% 29.98 in 10.0 mi NE 8.1 mph 16.1 mph N/A   Clear
10:35 AM 44.6 °F 40.2 °F 30.2 °F 57% 29.99 in 10.0 mi ENE 8.1 mph - N/A   Clear
10:55 AM 46.4 °F 45.2 °F 30.2 °F 53% 29.99 in 10.0 mi NE 3.5 mph - N/A   Clear
11:15 AM 46.4 °F 43.5 °F 30.2 °F 53% 29.99 in 10.0 mi NE 5.8 mph - N/A   Clear
11:35 AM 48.2 °F - 30.2 °F 50% 30.00 in 10.0 mi NE 6.9 mph - N/A   Clear
11:55 AM 48.2 °F - 30.2 °F 50% 30.00 in 10.0 mi NNE 5.8 mph - N/A   Clear
12:15 PM 50.0 °F - 32.0 °F 50% 30.01 in 10.0 mi NE 4.6 mph - N/A   Clear
12:35 PM 50.0 °F - 30.2 °F 47% 30.00 in 10.0 mi North 6.9 mph - N/A   Clear
12:55 PM 51.8 °F - 30.2 °F 44% 30.00 in 10.0 mi North 9.2 mph - N/A   Clear
1:15 PM 51.8 °F - 30.2 °F 44% 30.00 in 10.0 mi NE 5.8 mph - N/A   Clear
1:35 PM 51.8 °F - 32.0 °F 47% 30.00 in 10.0 mi NNW 9.2 mph - N/A   Clear
1:55 PM 51.8 °F - 32.0 °F 47% 30.00 in 10.0 mi NNW 5.8 mph - N/A   Clear
2:15 PM 51.8 °F - 32.0 °F 47% 30.00 in 10.0 mi North 9.2 mph - N/A   Clear
2:35 PM 51.8 °F - 32.0 °F 47% 30.00 in 10.0 mi NNW 8.1 mph - N/A   Clear
2:55 PM 51.8 °F - 32.0 °F 47% 30.00 in 10.0 mi NNW 10.4 mph 16.1 mph N/A   Clear
3:15 PM 51.8 °F - 30.2 °F 44% 30.00 in 10.0 mi North 6.9 mph - N/A   Clear
3:35 PM 53.6 °F - 32.0 °F 44% 30.00 in 10.0 mi North 10.4 mph - N/A   Clear
3:55 PM 53.6 °F - 32.0 °F 44% 30.00 in 10.0 mi North 6.9 mph - N/A   Clear
4:15 PM 53.6 °F - 32.0 °F 44% 30.01 in 10.0 mi North 3.5 mph - N/A   Clear
4:35 PM 53.6 °F - 32.0 °F 44% 30.01 in 10.0 mi North 6.9 mph - N/A   Clear
4:55 PM 53.6 °F - 32.0 °F 44% 30.01 in 10.0 mi NNW 5.8 mph - N/A   Clear
5:15 PM 51.8 °F - 32.0 °F 47% 30.02 in 10.0 mi NNW 5.8 mph - N/A   Clear
5:55 PM 51.8 °F - 32.0 °F 47% 30.03 in 10.0 mi Calm Calm - N/A   Clear
6:15 PM 50.0 °F - 32.0 °F 50% 30.03 in 10.0 mi North 3.5 mph - N/A   Clear
6:35 PM 48.2 °F - 30.2 °F 50% 30.03 in 10.0 mi North 4.6 mph - N/A   Clear
6:55 PM 46.4 °F 45.2 °F 30.2 °F 53% 30.03 in 10.0 mi North 3.5 mph - N/A   Clear
7:15 PM 44.6 °F 43.1 °F 30.2 °F 57% 30.04 in 10.0 mi North 3.5 mph - N/A   Clear
7:55 PM 41.0 °F - 32.0 °F 70% 30.04 in 10.0 mi Calm Calm - N/A   Clear
8:15 PM 41.0 °F - 32.0 °F 70% 30.05 in 10.0 mi Calm Calm - N/A   Clear
8:35 PM 37.4 °F 34.9 °F 32.0 °F 81% 30.06 in 10.0 mi North 3.5 mph - N/A   Clear
8:55 PM 37.4 °F - 32.0 °F 81% 30.06 in 10.0 mi Calm Calm - N/A   Clear
9:15 PM 35.6 °F 32.8 °F 32.0 °F 87% 30.06 in 10.0 mi North 3.5 mph - N/A   Clear
9:35 PM 35.6 °F 32.8 °F 32.0 °F 87% 30.07 in 10.0 mi NNE 3.5 mph - N/A   Clear
9:55 PM 37.4 °F - 32.0 °F 81% 30.07 in 10.0 mi Calm Calm - N/A   Clear
10:15 PM 35.6 °F - 32.0 °F 87% 30.08 in 10.0 mi Calm Calm - N/A   Clear
10:55 PM 32.0 °F - 32.0 °F 100% 30.08 in 10.0 mi Calm Calm - N/A   Clear
11:15 PM 32.0 °F - 32.0 °F 100% 30.09 in 10.0 mi Calm Calm - N/A   Clear
11:35 PM 32.0 °F - 32.0 °F 100% 30.09 in 10.0 mi Calm Calm - N/A   Clear
11:55 PM 32.0 °F 28.7 °F 30.2 °F 93% 30.10 in 10.0 mi North 3.5 mph - N/A   Clear